wave3.com alexa rank chart, wave3.com alexa rank daily changes

wave3.com alexa rank chart, wave3.com alexa rank daily changes

wave3.com
Actual rank:
71 476

RANK HISTORY

Date Rank Diff
2017/03/24 71 476 +1 279
2017/03/23 70 197 -168
2017/03/22 70 365 -654
2017/03/21 71 019 -673
2017/03/20 71 692 +113
2017/03/19 71 579 -1 085
2017/03/18 72 664 -457
2017/03/17 73 121 -905
2017/03/16 74 026 -1 141
2017/03/15 75 167 -839
2017/03/14 76 006 +580
2017/03/13 75 426 +1 530
2017/03/12 73 896 +619
2017/03/11 73 277 -854
2017/03/10 74 131 -685
2017/03/09 74 816 -1 276
2017/03/08 76 092 -701
2017/03/07 76 793 +50
2017/03/06 76 743 +61
2017/03/01 76 682 +399
2017/02/28 76 283 +126
2017/02/27 76 157 +13
2017/02/26 76 144 +47
2017/02/25 76 097 +1 051
2017/02/24 75 046 -712
2017/02/23 75 758 +712
2017/02/22 75 046 +1 935
2017/02/21 73 111 -67
2017/02/20 73 178 -1 240
2017/02/19 74 418 -727
2017/02/18 75 145 +418
2017/02/17 74 727 +73
2017/02/16 74 654 +4 400
2017/02/15 70 254 +1 190
2017/02/14 69 064 -1 164
2017/02/13 70 228 -752
2017/02/12 70 980 +248
2017/02/11 70 732 +109
2017/02/10 70 623 -2 078
2017/02/09 72 701 -405
2017/02/08 73 106 -455
2017/02/07 73 561 +1 184
2017/02/06 72 377 -428
2017/02/05 72 805 -2 021
2017/02/04 74 826 -743
2017/02/03 75 569 -770
2017/02/02 76 339 +37
2017/02/01 76 302 -1 255
2017/01/31 77 557 -1 329
2017/01/30 78 886 -217
2017/01/29 79 103 -798
2017/01/28 79 901 -87
2017/01/27 79 988 -1 444
2017/01/26 81 432 -854
2017/01/25 82 286 +197
2017/01/24 82 089 +96
2017/01/23 81 993

WIDGET FOR YOUR SITE

DOMAINS WITH THE NEAREST RANK

Domain Rank
zhujiage.com.cn 71 471
icegay.tv 71 472
coinzilla.io 71 473
inote.tw 71 474
todotest.com 71 475
wave3.com 71 476
vienthonga.vn 71 477
pornleak.net 71 478
ziyonet.uz 71 479
atma.hr 71 480
chrisalbon.com 71 481

DOMAINS WITH THE NEAREST RANK BY TLD .com

Domain Rank
shareinvestor.com 71 466
xiugif.com 71 467
melonude.com 71 469
athome.com 71 470
todotest.com 71 475
wave3.com 71 476
chrisalbon.com 71 481
crehana.com 71 483
shakeuplearning.com 71 484
legendaryspeed.com 71 485
tvzt.com 71 487